Theta_e
289 291 296 303 317 322 322 325 325 327 327 325 323 323 321 322 322 322 323 322 323 322 320 318 317 317 317 315 312 308 307 302 301 300 297 298 297 297 297 298 297 297 297
286 289 292 297 317 319 320 323 326 325 328 327 326 325 323 322 322 322 321 321 322 322 321 320 319 316 315 314 312 308 303 301 301 301 297 296 295 293 296 296 296 295 294
285 287 289 293 303 317 321 323 325 327 328 328 327 326 324 321 317 316 318 320 321 321 322 320 319 316 316 312 312 310 306 302 299 299 302 293 293 289 291 293 294 293 291
287 288 288 291 295 312 318 322 323 325 328 328 326 323 320 318 318 317 318 319 320 321 321 321 320 317 315 312 311 310 309 304 300 299 298 297 296 292 290 290 291 292 291
286 287 288 291 297 314 315 320 322 323 326 327 325 323 321 320 319 318 316 316 317 319 319 319 318 317 315 314 312 309 308 305 303 300 296 298 296 294 292 294 291 290 291
286 287 289 291 296 311 316 320 319 320 321 325 324 322 320 318 316 315 314 315 316 316 314 313 313 313 313 312 310 310 309 306 304 303 299 297 295 295 294 292 295 292 290
285 286 287 288 292 310 314 317 317 316 318 322 322 322 320 318 317 316 315 314 312 311 312 313 313 313 313 312 311 310 308 307 304 301 299 299 295 295 295 294 293 289 288
286 286 287 288 292 304 313 314 315 315 318 319 320 321 321 319 318 317 317 317 315 313 313 312 306 304 304 305 306 305 303 302 301 299 297 293 291 291 290 289 288 285 285
285 286 288 289 293 303 311 313 315 314 314 311 303 300 306 308 306 300 300 299 299 299 297 297 296 296 297 296 295 294 292 292 291 290 290 289 289 288 288 287 286 285 283
286 291 296 299 300 302 305 304 303 301 300 299 297 296 295 295 295 295 293 293 293 293 293 292 292 292 293 293 292 291 291 290 290 289 288 288 288 287 286 286 285 285 284
292 292 293 294 294 296 296 296 296 295 295 295 294 293 293 293 292 292 291 291 291 291 291 291 291 291 291 292 291 290 290 288 287 287 286 285 285 285 285 285 284 283 283
288 289 290 290 290 291 292 291 291 291 292 291 290 289 289 289 288 287 287 288 287 288 288 288 287 287 287 287 287 286 286 285 284 284 284 283 285 283 284 284 283 283 283
285 286 287 287 288 289 289 290 289 288 289 288 288 287 286 286 286 286 286 286 286 286 286 286 285 285 286 285 285 285 284 283 283 282 281 280 280 279 281 282 281 283 283
283 283 284 284 286 287 287 287 286 287 287 286 285 285 285 284 284 283 283 283 283 283 284 284 284 284 283 283 283 282 281 281 281 279 278 278 279 279 279 279 279 280 279
279 280 281 282 283 283 284 284 284 285 285 284 283 283 283 282 281 280 280 280 280 280 280 280 281 281 282 282 280 278 277 277 276 277 277 277 278 279 279 278 277 277 276
276 278 279 279 280 281 281 282 282 283 283 282 281 281 281 280 279 278 278 277 277 278 278 278 278 278 279 281 281 278 275 275 274 274 275 275 276 277 278 278 278 276 274
273 274 275 277 278 278 279 278 279 280 280 280 280 279 278 277 276 276 276 275 275 275 276 277 277 277 278 280 279 278 275 273 273 273 274 274 275 276 275 274 274 274 275
271 272 273 275 276 277 277 278 278 277 276 276 276 276 276 275 275 275 274 274 274 273 274 274 276 277 278 279 279 277 275 273 272 271 271 273 273 275 274 271 270 271 271
270 271 273 273 274 274 275 275 274 274 274 273 273 274 274 273 273 273 273 273 273 272 272 273 273 274 276 279 278 275 273 272 271 271 270 270 272 275 275 270 267 268 269
269 269 271 272 272 272 273 273 272 272 272 272 272 273 273 272 271 272 271 272 272 272 272 272 272 272 273 278 278 275 273 270 270 269 268 271 272 274 274 269 266 266 267
269 269 269 268 270 272 271 270 270 270 272 272 272 272 272 271 271 270 270 270 270 270 269 270 271 271 272 273 277 277 272 271 269 268 266 267 272 272 272 270 266 267 266
267 268 267 266 268 270 270 268 267 269 270 269 269 269 270 271 271 269 269 269 268 267 267 267 268 270 271 274 275 275 274 273 268 267 266 266 270 269 268 266 268 268 263
266 267 266 265 265 266 268 266 266 267 267 266 265 266 267 269 270 268 269 268 267 266 266 266 265 266 270 271 274 273 273 272 268 268 267 267 267 266 263 264 265 260 257
265 265 265 264 263 264 265 265 266 266 264 263 264 264 264 265 266 268 268 268 268 266 266 265 264 264 267 269 270 270 269 269 267 262 259 263 262 262 261 258 259 258 257
264 264 263 262 262 262 262 262 263 264 264 264 264 263 263 262 263 264 268 267 269 269 265 260 262 263 264 269 273 271 269 267 267 258 255 254 254 254 255 255 255 255 255
263 262 261 260 260 259 259 258 258 260 262 262 261 261 260 260 260 260 260 268 270 271 271 271 269 266 270 273 272 272 271 268 267 253 251 252 252 252 253 253 253 254 254
Wind_Speed
12 9 9 8 9 9 8 8 11 11 12 11 10 10 10 9 8 8 12 12 11 11 10 6 6 6 7 7 7 3 5 2 3 4 0 3 5 5 5 4 4 6 5
8 10 9 6 6 9 8 8 11 10 16 12 12 9 10 8 9 9 10 12 13 13 11 10 9 9 6 7 8 6 3 3 6 4 2 3 3 4 7 5 6 8 4
10 11 7 9 5 8 8 9 11 14 15 11 12 9 8 4 4 5 6 10 11 11 11 11 9 9 8 8 10 10 9 7 5 5 4 2 6 1 1 7 6 8 6
10 10 7 9 8 7 5 7 8 4 12 14 16 16 12 10 7 9 8 8 12 13 13 12 11 11 9 9 10 9 8 5 7 2 6 3 3 5 4 3 4 6 8
11 12 9 9 9 6 4 6 5 3 6 5 11 10 11 9 7 8 10 8 8 9 10 10 11 10 9 10 11 10 11 7 5 5 3 6 2 2 4 7 2 2 5
9 8 8 6 6 2 4 7 6 5 7 3 5 9 12 9 8 7 8 7 5 6 7 6 6 5 7 8 9 10 10 10 8 7 5 4 3 5 5 5 8 5 3
8 8 8 6 6 4 5 8 8 5 5 4 5 3 5 7 7 7 6 6 4 3 5 5 6 6 8 8 8 9 9 7 5 1 2 2 3 2 1 2 3 2 2
8 7 7 5 5 1 5 7 8 8 4 5 8 10 12 5 6 7 6 4 2 2 4 4 9 10 9 7 6 5 5 5 4 7 5 5 5 6 4 3 2 2 2
7 6 5 2 6 4 5 4 6 9 11 15 16 20 16 13 13 16 15 9 10 8 12 12 11 10 10 10 10 9 10 11 9 9 8 8 6 5 6 5 3 2 3
11 12 12 14 14 15 14 16 18 18 16 16 17 20 15 17 16 16 17 15 14 14 13 13 14 13 12 10 11 9 10 12 8 6 9 7 6 6 4 3 3 2 1
17 16 15 16 18 18 19 17 18 20 19 17 20 21 18 18 18 18 17 17 18 15 17 15 15 14 11 12 12 12 12 13 11 9 9 11 8 6 5 4 3 3 2
17 19 18 21 21 19 18 19 18 21 18 18 20 22 18 18 18 18 19 18 18 18 16 16 17 16 16 15 15 15 14 13 13 11 13 13 8 9 7 6 6 4 3
22 20 21 22 20 18 19 18 18 21 18 22 22 21 20 20 20 20 20 18 19 20 20 17 18 18 16 15 15 15 14 14 13 13 15 13 12 12 10 9 8 7 5
22 19 21 21 20 17 17 19 21 19 20 24 20 22 22 20 19 18 18 19 19 19 18 19 19 18 17 16 15 14 14 13 14 14 14 13 14 12 11 9 8 8 7
23 21 19 18 17 17 18 20 21 21 22 21 21 21 19 18 18 18 18 17 19 17 18 18 18 17 16 12 13 13 13 13 13 12 11 12 15 21 17 8 10 10 9
21 19 21 20 19 16 18 20 22 21 18 19 19 18 17 17 17 17 17 17 18 18 18 19 18 17 13 26 25 17 12 13 13 11 11 11 15 17 21 20 18 14 10
17 18 20 18 16 19 17 20 18 17 19 19 18 16 17 18 17 17 18 17 18 16 18 18 18 18 16 26 25 22 11 12 12 13 12 12 11 14 12 16 17 14 15
17 19 15 15 16 16 18 18 18 18 18 19 17 16 16 17 17 17 16 16 15 17 16 16 16 16 18 27 24 21 11 11 13 13 14 14 13 16 15 14 13 12 11
11 12 13 15 17 16 15 17 18 17 18 18 16 15 15 15 15 16 15 14 14 14 15 14 15 16 17 28 25 17 12 13 13 13 13 14 13 22 23 13 13 13 12
14 14 15 15 18 15 14 18 18 17 18 16 16 15 15 16 16 14 14 13 12 12 11 13 14 17 15 26 27 19 9 11 9 10 12 18 19 24 23 12 12 11 12
14 13 14 16 15 12 13 18 16 17 14 15 15 15 15 16 14 13 12 12 12 12 12 12 11 12 13 16 25 25 11 9 7 8 8 9 25 24 22 20 11 14 16
14 14 14 15 14 13 13 17 16 12 12 14 14 14 14 12 10 12 11 12 10 11 10 9 8 7 8 18 20 23 22 21 8 9 8 10 24 22 20 15 22 22 16
11 12 11 13 13 13 12 15 10 10 11 13 12 12 11 10 11 11 10 9 9 8 8 7 7 8 8 6 18 19 20 19 12 8 16 24 23 21 13 21 22 14 7
10 9 10 12 12 10 11 10 9 8 10 12 11 10 11 10 10 9 8 9 8 8 7 7 6 6 7 8 8 8 8 12 12 10 10 16 17 16 15 9 11 8 8
7 7 8 8 9 8 10 9 8 5 11 11 10 10 9 10 8 8 7 7 8 10 6 2 2 7 8 10 18 17 12 11 14 10 8 7 7 8 8 7 8 8 8
5 7 8 8 8 8 10 10 9 7 9 11 8 7 6 6 6 6 6 14 14 17 18 19 12 4 16 20 23 24 24 24 23 6 6 8 8 8 9 9 9 9 10
Wind_Direction
259 267 273 281 230 210 183 208 211 195 158 157 171 173 177 176 176 186 178 177 186 185 184 185 167 179 191 186 178 144 158 137 151 117 343 255 232 232 225 223 223 230 223
258 268 277 287 233 205 175 206 216 226 173 160 174 173 178 189 179 186 183 184 187 186 190 185 188 182 179 180 180 173 142 127 184 147 89 282 303 253 230 214 222 227 213
228 254 257 273 244 219 175 173 209 186 209 183 160 156 151 147 140 170 186 196 189 189 190 189 183 181 192 193 186 192 180 173 196 216 153 156 223 331 185 228 220 220 212
215 237 233 264 265 226 175 177 180 181 204 184 167 172 173 177 176 182 189 190 180 186 193 194 198 188 194 190 197 184 202 150 177 209 242 237 150 199 303 241 235 220 230
219 225 218 234 256 250 155 161 152 156 244 177 160 169 184 187 165 171 179 188 183 186 194 197 193 193 194 201 194 194 198 204 172 184 151 212 191 241 194 270 259 220 223
228 237 230 240 267 267 222 110 115 101 58 106 161 173 193 169 154 153 161 177 190 193 181 173 186 194 198 199 201 204 211 209 206 202 178 162 174 208 207 247 266 268 252
239 223 230 216 254 214 162 119 129 104 102 122 102 24 201 173 171 175 168 165 148 188 202 185 213 207 212 212 205 209 207 217 226 207 137 117 106 104 143 179 257 265 335
234 207 225 235 242 231 136 124 149 133 148 178 162 205 198 196 184 181 176 165 134 37 47 73 55 42 45 38 31 19 35 63 78 89 71 67 40 40 29 25 12 330 285
195 173 115 6 5 355 144 143 83 63 35 42 56 44 18 37 50 60 54 50 63 57 64 57 66 57 59 66 76 82 68 55 37 57 66 83 76 61 57 52 29 65 327
56 59 58 51 46 45 59 66 71 69 66 65 68 63 25 51 56 58 61 60 60 54 57 59 61 53 46 58 73 70 66 83 83 68 71 63 62 72 59 53 55 37 262
69 69 61 59 55 52 54 59 63 68 64 63 66 67 55 52 57 59 55 57 62 56 56 53 61 62 55 51 61 61 60 56 57 44 50 55 41 46 44 39 33 25 356
60 62 63 63 57 55 59 60 63 69 62 69 70 62 61 59 61 61 64 56 62 61 60 58 57 56 55 52 57 60 55 56 55 50 49 45 40 38 28 31 22 7 336
58 61 57 60 60 59 60 64 62 68 72 70 64 69 66 61 57 55 56 58 60 61 57 57 56 56 54 55 56 59 60 59 58 53 50 44 41 36 21 21 12 358 340
55 60 59 58 58 61 64 68 68 67 67 71 68 66 63 62 63 62 59 58 58 60 58 57 55 56 55 53 56 58 61 60 58 57 50 41 36 30 16 14 5 356 349
49 51 59 62 60 62 63 64 64 61 63 67 68 67 69 67 68 64 61 60 60 59 59 60 59 57 54 53 54 55 53 52 54 50 47 43 35 30 24 17 8 6 3
42 45 51 53 49 56 63 63 63 62 67 71 69 71 76 74 67 65 63 61 60 58 61 57 55 53 57 55 56 55 52 48 46 39 36 35 28 21 21 17 16 16 10
34 40 45 46 48 51 55 61 65 66 63 64 66 65 65 67 63 61 58 55 55 52 52 54 53 52 51 50 51 50 50 50 44 37 28 28 19 13 14 7 5 11 5
33 34 39 45 46 52 57 64 61 61 63 61 59 59 61 62 59 58 57 56 54 51 50 46 45 51 48 46 44 43 43 46 42 35 26 15 11 4 3 1 353 355 350
29 36 42 47 47 49 55 66 65 63 61 59 57 56 59 64 62 59 56 56 58 56 53 48 44 42 44 43 41 36 31 33 32 26 20 5 0 358 358 3 347 345 341
29 30 37 48 49 36 48 62 61 59 59 59 60 58 57 59 58 55 54 53 55 59 56 53 43 37 32 36 36 36 30 24 17 16 12 4 356 358 356 6 343 335 344
34 34 42 45 43 43 55 64 60 55 56 60 57 55 56 59 57 57 51 51 52 51 43 44 41 35 26 25 30 30 21 25 5 3 358 355 351 353 354 1 332 339 351
31 36 49 44 34 38 53 61 56 51 58 61 57 54 53 53 53 60 54 50 47 47 42 36 31 22 20 22 22 21 23 11 5 2 353 342 349 350 351 353 343 350 345
34 35 48 54 39 36 46 61 46 55 63 64 57 55 54 50 54 54 53 53 47 47 40 32 21 5 359 7 15 10 9 6 4 357 354 351 350 350 349 344 346 351 331
36 35 53 56 49 33 43 48 50 55 68 65 58 50 52 49 40 53 46 45 41 37 37 33 17 348 346 348 0 4 358 5 350 14 358 348 347 345 342 331 332 327 323
42 43 58 62 52 42 44 27 20 36 71 66 58 49 46 41 35 34 43 48 34 39 24 345 9 2 352 338 355 355 350 1 339 19 352 336 339 335 333 329 322 319 316
27 51 50 58 40 42 42 29 16 30 70 67 54 46 49 38 39 29 17 30 32 30 24 16 14 5 349 350 355 351 358 355 360 10 342 338 334 333 328 326 321 318 318